Helicity
33 23 24 24 27 44 81 91 146 32 90 121 179 44 155 92 98 247 257 171 195 175 195 174 213 138 106 21 13 45 84 56 47 43 -0 15 91 103 110 130 129 56 72 191
22 17 14 18 20 34 92 77 80 1 50 115 79 87 20 17 67 221 294 248 180 127 71 104 209 146 26 -9 36 11 -1 36 8 23 -26 43 76 82 114 107 88 -53 24 41
13 14 13 16 13 33 104 82 23 25 100 10 38 59 25 24 38 105 166 207 168 130 121 123 85 142 81 125 105 70 32 41 35 44 64 1 16 122 51 89 147 70 -52 -2
18 6 10 15 17 30 94 35 29 7 27 -3 65 24 34 8 36 49 81 108 84 124 120 110 76 128 36 30 34 41 26 -11 10 24 -16 -0 -91 109 102 56 85 154 102 45
4 -7 -1 -1 19 38 87 84 22 14 -38 33 56 29 11 31 75 13 36 56 66 55 58 67 63 66 72 -11 33 49 22 -31 -21 -32 -79 2 -34 74 172 42 69 41 154 234
-32 -26 -10 1 12 52 12 39 11 -28 -22 -5 91 76 8 47 46 71 33 43 35 -54 47 31 34 40 42 49 55 44 44 -26 -41 -75 -38 26 -15 10 81 75 70 47 63 61
-21 -22 -2 15 4 11 32 20 21 -26 -18 7 65 143 45 73 119 54 43 24 66 54 51 58 70 75 49 46 25 69 53 -14 -44 -54 -10 58 123 28 53 32 129 142 123 164
-7 -14 -1 3 12 -6 10 44 37 7 -22 -34 29 86 106 103 65 48 64 78 34 30 23 5 29 47 52 62 66 83 59 60 22 -43 33 56 94 135 102 44 115 151 188 130
6 26 53 7 11 -11 -13 21 60 27 -39 -4 58 5 56 100 95 83 33 53 20 52 63 98 43 57 34 29 32 62 89 104 45 -35 51 71 70 26 86 134 130 118 205 229
-4 -4 27 3 9 12 -36 45 31 54 -7 -46 6 32 59 100 69 34 42 28 40 62 62 27 13 15 39 -0 -5 35 67 55 48 9 -0 53 20 25 36 111 150 117 146 147
-18 -14 17 44 4 33 19 34 85 75 8 -12 28 22 66 112 77 78 56 22 47 67 68 47 18 -3 13 12 13 46 106 43 76 19 -10 32 30 35 54 81 83 76 98 137
-23 -16 -11 17 10 20 69 16 76 43 36 20 25 24 7 25 24 10 11 4 2 77 50 44 -4 3 -16 -13 26 65 18 74 66 41 6 89 140 106 142 211 179 133 136 139
29 -7 -11 -7 21 18 66 47 98 107 -12 -64 -64 3 94 32 11 -8 57 58 41 48 40 -16 -66 -18 -12 20 20 36 -3 27 30 60 142 248 326 401 362 263 161 158 155 155
17 23 6 -9 7 18 49 67 19 9 51 -57 9 -11 23 4 -7 -37 -23 -3 -1 31 28 -33 -4 -19 24 17 23 -30 118 115 44 114 261 646 557 356 226 221 199 145 100 124
28 13 17 4 1 17 -4 50 18 2 50 6 -7 -32 1 30 19 -3 -60 -19 -9 36 38 -0 2 -7 -9 -42 32 123 199 262 103 132 79 143 109 190 148 114 71 76 60 59
28 9 5 14 22 28 134 162 28 42 62 6 8 47 118 86 10 46 -14 11 14 1 -10 4 -6 -16 5 10 94 102 141 102 203 109 79 49 -2 90 80 63 82 86 94 97
25 27 16 32 50 147 156 90 44 101 165 21 44 89 50 44 71 67 31 28 8 -13 -11 -10 1 -30 -8 7 7 85 124 129 191 88 16 49 57 40 67 53 71 77 73 76
20 6 23 57 126 165 168 121 51 197 200 18 39 -2 48 75 48 35 63 37 32 -15 12 -15 4 5 27 8 19 7 36 58 146 100 90 29 3 51 94 133 81 79 68 50
55 90 147 382 214 121 133 108 47 137 84 14 27 78 52 49 45 39 95 58 19 10 -5 9 26 22 31 38 33 33 47 59 79 86 116 112 119 100 105 125 114 76 50 24
296 296 219 169 128 133 140 147 59 59 28 19 22 24 40 29 76 86 63 47 11 -10 10 33 47 43 90 65 82 75 67 74 77 78 83 81 74 74 82 92 104 102 87 112
270 290 227 162 129 147 111 61 55 24 1 -0 -2 -3 19 60 73 85 65 21 21 6 10 18 50 57 71 83 49 49 63 76 94 94 107 123 126 103 84 94 104 112 120 129
158 169 183 171 102 110 76 83 77 43 46 39 36 21 27 33 105 58 77 54 45 42 52 63 59 74 100 61 62 62 76 70 79 91 104 107 122 125 129 103 106 124 124 129
298 229 143 98 100 102 76 85 92 58 52 66 58 49 48 53 41 49 72 34 29 40 47 62 84 116 101 69 56 63 74 77 78 81 84 107 126 136 121 117 119 121 134 124
168 147 133 116 92 92 85 111 103 74 76 79 100 94 62 72 74 70 53 79 80 -71 74 72 89 63 49 77 62 57 49 54 69 79 87 96 99 107 107 100 84 87 99 81
137 129 89 57 52 64 61 82 105 123 99 128 133 118 69 80 55 44 40 52 59 67 75 81 91 65 50 48 58 66 72 70 68 59 52 51 45 48 52 46 47 51 57 71
139 99 74 58 58 111 107 71 91 122 147 144 118 134 101 87 77 68 90 74 47 36 55 86 101 122 111 104 89 84 66 48 34 24 22 23 30 27 35 49 61 63 67 85
106 105 147 132 95 85 99 121 122 120 131 142 135 130 116 91 98 76 78 65 99 107 118 121 121 118 99 81 64 42 32 31 33 29 33 28 21 20 34 62 23 23 12 16
Wind_Speed
50 48 44 43 41 43 46 44 50 40 17 38 50 69 60 72 83 77 67 60 56 54 55 53 47 43 37 28 32 37 39 50 61 63 52 51 49 69 61 72 61 61 54 48
46 45 42 37 39 30 36 42 53 52 43 45 50 63 73 91 84 80 63 61 60 58 59 52 49 44 28 27 35 36 38 50 60 55 49 47 54 71 74 69 67 67 54 37
43 40 36 31 37 30 27 37 39 43 52 65 53 64 78 78 72 84 78 73 67 65 62 57 55 50 34 34 37 38 43 50 62 65 58 47 51 54 72 75 70 71 66 33
38 36 32 26 31 25 19 34 42 51 48 65 73 63 46 61 73 69 66 75 66 66 64 59 59 56 37 39 39 41 43 58 62 68 68 63 63 66 68 87 90 68 57 57
32 29 25 20 19 38 34 41 50 46 54 53 49 65 62 67 58 54 53 63 58 57 65 60 61 51 46 43 39 43 43 57 60 68 64 60 69 69 72 75 83 81 82 75
25 19 13 4 10 31 53 58 62 55 50 48 46 48 54 59 58 56 48 51 54 58 55 51 49 47 45 40 45 43 48 52 55 58 53 59 62 52 52 47 48 68 65 48
14 9 13 21 31 53 58 54 54 57 65 59 54 54 46 48 55 60 54 43 43 39 46 50 50 51 52 48 46 48 56 52 53 60 52 49 40 34 28 27 30 31 43 30
23 18 36 35 43 62 70 59 59 56 65 60 59 56 50 51 50 52 55 52 38 35 41 43 50 52 56 59 57 59 65 60 60 55 54 55 43 34 37 40 28 28 24 31
34 24 36 50 50 63 71 71 58 61 56 61 57 52 52 51 49 49 49 37 35 37 36 41 50 54 47 48 51 48 60 60 63 54 50 45 40 34 38 36 45 35 24 27
43 32 25 47 53 54 64 56 72 59 67 64 62 54 50 48 43 47 49 37 37 35 26 39 48 53 46 55 54 42 54 64 74 64 55 51 40 33 30 34 32 17 10 12
46 39 28 27 48 53 48 63 49 62 61 68 60 58 59 55 48 41 42 40 31 29 33 40 43 45 46 43 53 46 46 55 64 65 58 57 28 29 38 15 6 5 12 15
45 46 42 41 40 53 49 71 55 68 63 55 49 59 66 64 59 51 45 46 40 29 37 39 43 45 45 44 38 36 44 51 47 51 49 25 19 8 9 8 9 15 15 18
46 46 45 46 45 51 57 40 48 55 71 68 70 72 74 74 69 61 49 40 37 37 37 43 44 44 44 40 38 32 41 52 43 34 22 12 8 9 13 15 15 19 22 25
38 40 44 47 49 53 55 53 63 46 46 59 58 51 61 59 70 68 64 53 41 45 44 41 43 41 37 39 32 30 34 33 39 26 24 7 19 17 19 22 24 26 29 34
14 35 41 45 49 55 54 54 76 71 14 43 49 52 61 65 65 67 66 57 50 45 45 44 42 39 38 36 32 20 17 24 28 24 8 7 16 19 24 27 28 32 35 37
9 20 43 40 39 37 39 41 75 78 57 49 47 44 50 50 60 60 65 49 43 42 44 44 42 35 38 35 34 25 20 22 18 21 11 15 20 28 30 32 33 35 36 38
37 27 16 33 28 15 28 47 43 52 29 48 42 42 40 54 44 47 56 50 45 44 43 44 46 43 39 34 27 30 32 31 31 26 31 32 34 35 37 33 33 34 37 40
30 38 39 19 21 16 47 35 7 24 27 48 45 40 36 42 51 52 45 47 45 47 45 43 42 35 33 32 32 34 35 35 33 34 34 31 30 34 37 39 36 37 39 41
21 18 20 22 32 33 34 16 25 32 50 51 47 41 34 45 46 41 38 39 45 44 48 47 39 35 31 31 31 34 37 38 42 39 39 39 39 37 39 40 41 40 41 41
38 26 34 33 40 24 15 21 36 47 55 51 50 44 44 46 39 44 33 37 42 43 48 37 35 33 28 31 33 38 42 43 44 42 44 43 41 39 42 43 42 40 41 41
40 37 33 30 20 34 34 36 50 50 53 55 52 47 42 38 46 40 41 41 44 42 42 38 36 37 35 33 38 42 42 41 42 40 41 41 40 39 42 42 42 41 40 39
37 27 27 33 30 30 33 38 43 48 54 45 52 43 40 31 35 37 44 41 39 36 27 32 34 29 30 34 38 41 41 41 41 41 41 41 41 41 40 39 39 39 37 36
34 27 27 29 31 34 39 41 48 44 40 33 30 24 28 27 30 33 41 45 43 36 39 38 33 25 32 35 37 40 40 40 39 39 39 38 38 39 38 37 37 36 36 36
32 32 30 30 35 35 34 37 37 31 30 22 18 20 26 26 28 31 34 34 33 44 25 30 25 27 31 34 35 35 36 37 37 38 38 38 37 38 38 37 36 35 35 35
28 28 28 28 28 29 29 31 33 33 29 26 22 27 27 27 28 29 25 25 23 30 27 27 23 26 29 31 32 33 34 35 36 37 37 37 37 37 38 38 37 37 37 39
31 24 25 27 21 20 21 22 29 33 30 28 25 26 29 31 29 28 30 30 28 27 25 21 24 27 29 30 31 31 32 33 34 35 35 36 36 37 37 37 38 39 39 40
32 33 24 22 17 20 24 25 29 33 32 29 27 27 28 26 27 28 33 31 21 21 23 24 24 25 27 28 29 31 31 32 33 34 35 35 35 36 39 41 39 39 38 39
Wind_Direction
329 328 328 329 325 321 314 306 296 311 312 258 262 258 262 257 253 262 272 273 277 278 282 286 292 303 301 309 313 306 304 296 283 272 276 268 270 245 247 237 243 246 260 258
329 328 326 328 325 320 320 308 301 293 280 259 254 261 257 247 252 255 263 265 271 275 276 282 284 299 308 306 309 307 307 289 280 279 272 265 269 251 244 241 248 244 249 264
329 330 328 325 324 320 316 312 301 282 254 248 262 256 249 248 254 250 255 261 270 269 274 275 277 286 300 302 302 307 306 290 271 262 267 278 271 264 242 240 243 241 246 251
328 332 333 325 323 318 321 286 283 253 249 241 243 248 259 251 249 253 257 256 262 266 270 275 275 280 290 295 301 301 301 282 274 261 267 270 272 261 253 240 235 240 246 250
325 330 334 327 326 304 288 267 259 252 248 256 261 247 251 252 256 262 265 260 266 273 268 273 277 283 287 291 300 291 298 282 282 266 261 273 267 264 259 243 235 242 246 258
320 320 323 285 312 283 247 242 246 244 249 255 262 259 260 256 259 263 271 275 272 270 278 288 289 293 291 290 289 288 288 283 279 264 274 275 259 266 257 241 244 243 245 258
294 267 218 198 188 252 248 246 245 241 241 246 247 255 273 267 260 261 270 277 275 288 296 292 294 291 288 287 282 281 274 278 274 264 267 255 269 268 262 250 246 249 246 261
225 225 215 203 194 201 219 244 241 243 243 250 251 256 267 269 271 267 266 271 292 299 304 299 296 287 285 283 278 271 265 265 260 259 259 263 263 272 262 241 262 268 270 255
220 215 215 203 192 196 215 228 245 242 249 245 254 264 265 266 270 273 270 291 296 296 299 292 284 284 290 285 281 267 255 251 244 249 253 254 264 274 270 251 254 269 270 269
221 207 196 191 191 185 195 248 229 245 241 252 253 259 263 271 278 273 275 294 293 289 282 292 286 283 288 270 267 269 244 238 233 240 248 256 270 256 277 257 250 254 289 301
216 206 187 174 186 182 177 230 254 235 252 252 253 255 256 263 269 280 279 283 295 290 280 288 288 280 270 271 261 254 244 234 234 237 244 251 269 275 263 251 260 279 295 298
214 207 195 186 177 180 174 215 242 232 248 255 270 260 254 254 254 259 265 244 268 279 272 273 246 251 250 259 270 259 247 237 237 241 253 285 289 281 5 303 296 304 316 305
209 199 192 187 180 179 177 181 246 241 234 238 234 236 242 238 231 233 238 232 248 265 263 241 233 238 246 244 251 271 259 237 244 244 264 271 295 325 343 334 305 311 312 312
194 187 185 182 178 176 173 172 187 163 249 214 247 243 229 241 224 226 215 237 262 245 248 254 239 241 258 231 247 240 273 257 243 250 260 274 326 325 334 325 323 315 317 316
181 176 175 174 173 173 173 173 193 191 131 230 241 249 243 234 228 221 211 228 236 253 249 237 240 249 240 246 241 282 287 252 244 248 255 38 341 338 344 336 328 323 320 324
221 173 170 161 153 148 235 241 206 208 237 237 244 247 245 244 228 231 216 239 251 254 244 244 246 263 250 230 240 265 302 332 320 260 342 348 329 341 328 332 335 338 336 335
263 256 189 154 150 215 239 234 243 161 244 225 236 235 241 228 236 237 228 240 252 249 249 241 248 255 271 270 267 283 304 318 311 310 294 302 309 309 319 329 338 343 344 341
244 238 235 158 141 235 230 247 258 161 234 219 224 230 232 226 218 221 238 239 245 240 244 248 252 273 282 269 276 294 298 311 313 319 322 317 318 320 324 326 336 338 335 336
196 184 158 191 222 227 225 245 121 220 212 208 216 219 219 215 216 225 240 243 228 238 236 236 263 274 282 284 299 302 300 304 303 314 320 319 316 322 328 328 329 332 334 338
137 178 208 217 214 112 132 229 218 210 210 216 207 215 217 214 227 226 235 240 225 228 226 252 266 277 297 307 316 313 312 317 318 315 316 317 322 327 329 331 333 335 335 336
195 203 211 189 161 211 226 226 205 205 204 215 217 219 228 246 225 239 246 239 231 240 245 254 269 275 295 323 322 321 324 328 329 335 334 334 334 333 335 338 339 339 340 340
198 181 180 192 209 221 227 221 219 213 204 216 212 228 223 243 240 237 237 244 243 256 263 270 278 312 335 340 338 334 335 336 336 336 336 336 337 338 340 341 343 346 349 350
171 185 207 219 233 229 225 222 218 219 227 237 240 251 251 255 236 231 231 225 226 251 257 276 318 343 336 339 341 340 342 344 345 346 347 348 349 350 350 350 351 353 353 354
199 209 212 231 229 235 237 230 228 239 240 239 243 262 264 254 253 248 241 263 281 210 320 327 338 339 340 340 345 350 352 354 356 359 1 1 2 2 3 4 4 4 1 357
214 220 228 243 249 244 243 240 233 233 239 243 251 260 266 273 277 278 297 315 339 316 324 328 353 357 359 357 357 357 358 1 4 9 7 9 10 10 11 9 7 5 3 359
217 240 243 242 248 246 246 246 235 237 238 245 260 269 274 276 286 298 304 309 323 330 342 8 2 0 3 6 9 8 9 10 13 14 14 14 12 8 8 6 3 359 357 355
222 221 235 233 246 253 250 247 243 241 241 249 263 272 280 292 301 303 305 312 345 13 9 10 18 19 19 19 18 17 18 17 19 19 18 16 16 12 3 354 356 356 357 355